When you browse on this site, cookies collect data to enhance your experience and personalize the content and advertising you see.
Visit our Privacy Policy to learn more. By continuing to use the site, you agree to this use of cookies and data.
  • In Slovakia
  • List of Countries
  • For 7 days
  • Water Temperature
  • Weather Map
  • Weather Widgets
  • user-avatar
    Login

    Hourly Weather Santa Fe

    Today, 27 February, Thursday

    Time Temperature Precipitation Wind Pressure Humidity
    00:00 +21°C° 0 mm 2 mps 759 mmHg 41%
    01:00 +20°C° 0 mm 3 mps 758 mmHg 44%
    02:00 +19°C° 0 mm 3 mps 758 mmHg 47%
    03:00 +19°C° 0 mm 2 mps 758 mmHg 51%
    04:00 +18°C° 0 mm 2 mps 758 mmHg 54%
    05:00 +17°C° 0 mm 2 mps 758 mmHg 57%
    06:00 +20°C° 0 mm 1 mps 759 mmHg 52%
    07:00 +22°C° 0 mm 1 mps 759 mmHg 48%
    08:00 +24°C° 0 mm 1 mps 759 mmHg 43%
    09:00 +27°C° 0 mm 1 mps 759 mmHg 36%
    10:00 +30°C° 0 mm 1 mps 759 mmHg 29%
    11:00 +32°C° 0 mm 1 mps 759 mmHg 22%
    12:00 +34°C° 0 mm 1 mps 758 mmHg 21%
    13:00 +35°C° 0 mm 1 mps 757 mmHg 19%
    14:00 +36°C° 0 mm 1 mps 757 mmHg 17%
    15:00 +35°C° 0 mm 1 mps 756 mmHg 17%
    16:00 +35°C° 0 mm 1 mps 755 mmHg 17%
    17:00 +35°C° 0 mm 1 mps 755 mmHg 18%
    18:00 +32°C° 0 mm 1 mps 755 mmHg 22%
    19:00 +29°C° 0 mm 1 mps 756 mmHg 26%
    20:00 +24°C° 0 mm 0 mps 756 mmHg 30%
    21:00 +25°C° 0 mm 1 mps 756 mmHg 32%
    22:00 +25°C° 0 mm 2 mps 757 mmHg 34%
    23:00 +24°C° 0 mm 2 mps 757 mmHg 35%

    Tomorrow, 28 February, Friday

    Time Temperature Precipitation Wind Pressure Humidity
    00:00 +24°C° 0 mm 2 mps 757 mmHg 37%
    01:00 +22°C° 0 mm 3 mps 757 mmHg 39%
    02:00 +21°C° 0 mm 3 mps 757 mmHg 41%
    03:00 +21°C° 0 mm 3 mps 757 mmHg 43%
    04:00 +20°C° 0 mm 2 mps 757 mmHg 45%
    05:00 +20°C° 0 mm 2 mps 757 mmHg 47%
    06:00 +23°C° 0 mm 2 mps 758 mmHg 42%
    07:00 +25°C° 0 mm 3 mps 759 mmHg 38%
    08:00 +27°C° 0 mm 3 mps 759 mmHg 34%
    09:00 +29°C° 0 mm 3 mps 759 mmHg 29%
    10:00 +33°C° 0 mm 3 mps 759 mmHg 24%
    11:00 +36°C° 0 mm 3 mps 759 mmHg 20%
    12:00 +37°C° 0 mm 3 mps 758 mmHg 18%
    13:00 +38°C° 0 mm 3 mps 758 mmHg 16%
    14:00 +39°C° 0 mm 3 mps 757 mmHg 14%
    15:00 +39°C° 0 mm 3 mps 757 mmHg 15%
    16:00 +38°C° 0 mm 3 mps 756 mmHg 15%
    17:00 +38°C° 0 mm 3 mps 756 mmHg 15%
    18:00 +35°C° 0 mm 2 mps 756 mmHg 18%
    19:00 +31°C° 0 mm 2 mps 757 mmHg 22%
    20:00 +28°C° 0 mm 2 mps 757 mmHg 25%
    21:00 +28°C° 0 mm 3 mps 758 mmHg 27%
    22:00 +27°C° 0 mm 3 mps 758 mmHg 29%
    23:00 +27°C° 0 mm 4 mps 758 mmHg 31%

    Day after tomorrow, 29 February, Saturday

    Time Temperature Precipitation Wind Pressure Humidity
    00:00 +26°C° 0 mm 3 mps 759 mmHg 34%
    01:00 +25°C° 0 mm 3 mps 759 mmHg 38%
    02:00 +24°C° 0 mm 2 mps 759 mmHg 41%
    03:00 +23°C° 0 mm 2 mps 759 mmHg 43%
    04:00 +23°C° 0 mm 2 mps 760 mmHg 44%
    05:00 +21°C° 0 mm 2 mps 760 mmHg 46%
    06:00 +24°C° 0 mm 2 mps 761 mmHg 42%
    07:00 +26°C° 0 mm 2 mps 761 mmHg 38%
    08:00 +28°C° 0 mm 2 mps 762 mmHg 34%
    09:00 +31°C° 0 mm 2 mps 761 mmHg 29%
    10:00 +35°C° 0 mm 3 mps 761 mmHg 24%
    11:00 +38°C° 0 mm 3 mps 761 mmHg 18%
    12:00 +39°C° 0 mm 3 mps 761 mmHg 17%
    13:00 +40°C° 0 mm 3 mps 760 mmHg 15%
    14:00 +42°C° 0 mm 4 mps 760 mmHg 13%
    15:00 +42°C° 0 mm 4 mps 759 mmHg 14%
    16:00 +40°C° 0 mm 3 mps 759 mmHg 14%
    17:00 +40°C° 0 mm 3 mps 758 mmHg 15%
    18:00 +37°C° 0 mm 3 mps 759 mmHg 18%
    19:00 +34°C° 0 mm 3 mps 759 mmHg 21%
    20:00 +30°C° 0 mm 3 mps 759 mmHg 24%
    21:00 +29°C° 0 mm 3 mps 760 mmHg 26%
    22:00 +28°C° 0 mm 3 mps 760 mmHg 28%
    23:00 +27°C° 0 mm 4 mps 760 mmHg 30%

    1 March, Sunday

    Time Temperature Precipitation Wind Pressure Humidity
    00:00 +27°C° 0 mm 4 mps 760 mmHg 32%
    01:00 +27°C° 0 mm 3 mps 760 mmHg 33%
    02:00 +26°C° 0 mm 3 mps 760 mmHg 35%
    03:00 +25°C° 0 mm 3 mps 760 mmHg 36%
    04:00 +25°C° 0 mm 3 mps 760 mmHg 38%
    05:00 +24°C° 0 mm 3 mps 761 mmHg 40%
    06:00 +26°C° 0 mm 3 mps 761 mmHg 36%
    07:00 +28°C° 0 mm 4 mps 762 mmHg 33%
    08:00 +30°C° 0 mm 4 mps 762 mmHg 30%
    09:00 +34°C° 0 mm 5 mps 762 mmHg 25%
    10:00 +37°C° 0 mm 5 mps 762 mmHg 20%
    11:00 +41°C° 0 mm 5 mps 761 mmHg 15%
    12:00 +41°C° 0 mm 6 mps 761 mmHg 14%
    13:00 +42°C° 0 mm 6 mps 760 mmHg 14%
    14:00 +42°C° 0 mm 6 mps 760 mmHg 13%
    15:00 +42°C° 0 mm 6 mps 759 mmHg 13%
    16:00 +41°C° 0 mm 6 mps 758 mmHg 14%
    17:00 +41°C° 0 mm 5 mps 758 mmHg 14%
    18:00 +37°C° 0 mm 5 mps 758 mmHg 18%
    19:00 +34°C° 0 mm 4 mps 758 mmHg 21%
    20:00 +30°C° 0 mm 3 mps 759 mmHg 24%
    21:00 +30°C° 0 mm 3 mps 759 mmHg 27%
    22:00 +29°C° 0 mm 4 mps 759 mmHg 30%
    23:00 +28°C° 0 mm 4 mps 760 mmHg 33%

    2 March, Monday

    Time Temperature Precipitation Wind Pressure Humidity
    00:00 +28°C° 0 mm 4 mps 760 mmHg 36%
    01:00 +27°C° 0 mm 3 mps 759 mmHg 38%
    02:00 +26°C° 0 mm 3 mps 759 mmHg 40%
    03:00 +25°C° 0 mm 3 mps 760 mmHg 42%
    04:00 +25°C° 0 mm 3 mps 760 mmHg 43%
    05:00 +24°C° 0 mm 3 mps 760 mmHg 45%
    06:00 +26°C° 0 mm 4 mps 760 mmHg 42%
    07:00 +27°C° 0 mm 4 mps 761 mmHg 39%
    08:00 +28°C° 0 mm 5 mps 761 mmHg 36%
    09:00 +32°C° 0 mm 5 mps 760 mmHg 30%
    10:00 +35°C° 0 mm 5 mps 760 mmHg 25%
    11:00 +39°C° 0 mm 5 mps 759 mmHg 20%
    12:00 +40°C° 0 mm 5 mps 759 mmHg 18%
    13:00 +40°C° 0 mm 4 mps 758 mmHg 16%
    14:00 +41°C° 0 mm 4 mps 757 mmHg 14%
    15:00 +41°C° 0 mm 5 mps 756 mmHg 14%
    16:00 +41°C° 0 mm 5 mps 756 mmHg 13%
    17:00 +40°C° 0 mm 5 mps 755 mmHg 13%
    18:00 +36°C° 0 mm 5 mps 755 mmHg 16%
    19:00 +33°C° 0 mm 4 mps 755 mmHg 19%
    20:00 +29°C° 0 mm 4 mps 755 mmHg 22%
    21:00 +28°C° 0 mm 4 mps 756 mmHg 27%
    22:00 +27°C° 0 mm 3 mps 756 mmHg 33%
    23:00 +26°C° 0 mm 3 mps 756 mmHg 39%

    3 March, Tuesday

    Time Temperature Precipitation Wind Pressure Humidity
    00:00 +25°C° 0 mm 3 mps 756 mmHg 41%
    01:00 +25°C° 0 mm 3 mps 756 mmHg 44%
    02:00 +24°C° 0 mm 3 mps 755 mmHg 47%
    03:00 +24°C° 0 mm 3 mps 755 mmHg 49%
    04:00 +23°C° 0 mm 2 mps 755 mmHg 51%
    05:00 +21°C° 0 mm 2 mps 755 mmHg 53%
    06:00 +24°C° 0 mm 3 mps 756 mmHg 48%
    07:00 +26°C° 0 mm 3 mps 756 mmHg 43%
    08:00 +28°C° 0 mm 4 mps 756 mmHg 37%
    09:00 +32°C° 0 mm 4 mps 756 mmHg 31%
    10:00 +35°C° 0 mm 4 mps 756 mmHg 25%
    11:00 +38°C° 0 mm 4 mps 756 mmHg 19%
    12:00 +39°C° 0 mm 3 mps 755 mmHg 17%
    13:00 +40°C° 0 mm 3 mps 754 mmHg 15%
    14:00 +42°C° 0 mm 2 mps 754 mmHg 13%
    15:00 +41°C° 0 mm 2 mps 753 mmHg 13%
    16:00 +41°C° 0 mm 1 mps 752 mmHg 13%
    17:00 +41°C° 0 mm 1 mps 752 mmHg 13%
    18:00 +37°C° 0 mm 1 mps 752 mmHg 16%
    19:00 +35°C° 0 mm 2 mps 752 mmHg 19%
    20:00 +31°C° 0 mm 3 mps 753 mmHg 22%
    21:00 +30°C° 0 mm 3 mps 753 mmHg 24%
    22:00 +29°C° 0 mm 3 mps 753 mmHg 25%
    23:00 +29°C° 0 mm 3 mps 754 mmHg 27%
    Show more